Regional Weather Roundup
Issued by NWS

Home | Current Version | Previous Version | Text Only | Print | Product List | Glossary On
Versions: 1 2 3 4 5 6 7 8 9 10 11 12 13 14 15 16 17 18 19 20 21 22 23 24 25 26 27 28 29 30 31 32 33 34 35 36 37 38 39 40 41 42 43 44 45 46 47 48 49 50
000
ASUS43 KLMK 111110
RWRKY
KENTUCKY REGIONAL WEATHER ROUNDUP
NATIONAL WEATHER SERVICE LOUISVILLE KY
600 AM EST THU FEB 11 2016

NOTE "FAIR" INDICATES FEW OR NO CLOUDS BELOW 12,000 FEET
WITH NO SIGNIFICANT WEATHER AND/OR OBSTRUCTIONS TO VISIBILITY.

KYZ001>023-026-027-061>063-070>075-111200-
WESTERN AND SOUTH CENTRAL KENTUCKY

CITY           SKY/WX    TMP DP  RH WIND       PRES   REMARKS
PADUCAH        CLOUDY    26  20  77 NE5       30.18R WCI  20
HENDERSON      CLOUDY    25  18  74 NE8       30.22R WCI  16
OWENSBORO      CLOUDY    23  18  81 N5        30.23R WCI  17
HOPKINSVILLE   CLOUDY    25  21  85 E8        30.17R WCI  16
BOWLING GREEN  CLOUDY    25  19  78 E5        30.21R WCI  19
GLASGOW        CLOUDY    23  18  82 E3        30.19R
$$

KYZ024-025-028>034-038-045-046-053-111200-
NORTH CENTRAL KENTUCKY

CITY           SKY/WX    TMP DP  RH WIND       PRES   REMARKS
LOUISVILLE/SDF CLOUDY    21  12  68 N5        30.21R WCI  15
LOUISVILLE/LOU CLOUDY    21  12  68 N5        30.21R WCI  15
FORT KNOX      CLOUDY    20  14  77 N3        30.18R
$$

KYZ035>037-039>044-047>052-055>060-089>105-111200-
NORTHEAST KENTUCKY

CITY           SKY/WX    TMP DP  RH WIND       PRES   REMARKS
LEXINGTON      CLOUDY    17  10  74 CALM      30.18R
COVINGTON      CLOUDY    13   7  77 W5        30.17R WCI   5
FRANKFORT      CLOUDY    18   9  68 CALM      30.18R
$$

KYZ054-064>069-076>088-106>120-111200-
SOUTHEAST KENTUCKY

CITY           SKY/WX    TMP DP  RH WIND       PRES   REMARKS
JACKSON        PTCLDY    15   7  70 CALM      30.14R
LONDON         CLOUDY    20  11  68 CALM      30.16R
SOMERSET       CLOUDY    21  16  79 CALM      30.20R
MIDDLESBORO    CLOUDY    23  15  72 CALM      30.17R
MONTICELLO     CLOUDY    22  17  81 MISG      30.19R
$$




USA.gov is the U.S. government's official web portal to all federal, state and local government web resources and services.